STARLINK-35980

Last updated on Wed Dec 31 2025 00:02:06 GMT+0000 (Coordinated Universal Time)

1 66600U 25270N 25364.59217934 .00078832 00000+0 18753-2 0 9997 2 66600 43.0033 89.4044 0001940 256.8637 103.2003 15.40694809 7005
UTC large
Height (km)
Speed (km/s)
/
Latitude / Longitude
Inclination (degrees)
Orbital Period (minutes)
Azimuth
Elevation
Range (km)
Doppler Factor

Next 0 passes for location: London (51.5072 / 0.1276)

Sorry there are no passes over London.